User: anonymous   Login
Location: Houston
(29.7630°N, 95.3630°W)
Time: 04:52:54
(UTC-05:00)
Language:

ISS - Orbit

View from above orbital plane
View from above orbital plane
View from above satellite
View from above satellite

Ground track
Ground track

The orbit data is extracted from the following two-line orbital elements,

1 25544U 98067A   16144.91717862  .00003734  00000-0  62377-4 0  9993
2 25544  51.6424 179.1044 0001782 114.3797 305.9276 15.54681861  1211
Epoch (UTC): 23 May 2016 22:00:44
Eccentricity: 0.0001782
inclination: 51.6424°
perigee height: 402 km
apogee height: 404 km
right ascension of ascending node: 179.1044°
argument of perigee: 114.3797°
revolutions per day: 15.54681861
mean anomaly at epoch: 305.9276°
orbit number at epoch: 121

The dashed part of the orbit path shows where the satellite is in the earth's shadow,  

DLR